Flag for Germany Weather past 2 weeks in Mülheim / Ruhr, North Rhine-Westphalia, Germany

Now
64 °F

Partly sunny.


Feels Like: 64 °F
Forecast: 54 / 70 °F
Wind: 5 mph from Northeast

Location: Duesseldorf

Current Time: Oct 2, 2014 at 7:21:06 PM

Latest Report: Oct 2, 2014 at 6:50 PM


Visibility: N/A

Pressure: 30.33 "Hg

Humidity: 78%

Dew point: 57 °F

Location of Mülheim / RuhrLocation

Historic Weather in Mülheim / Ruhr — Graph

°F

Mülheim / Ruhr temperature yesterday

Maximum temperature yesterday: 70 °F (at 2:50 PM)
Minimum temperature yesterday: 54 °F (at 12:50 AM)
Average temperature yesterday: 62 °F

Past Weeks' High & Low Weather Summary

 TemperatureHumidityPressure
High77 °F (Sep 19, 4:50 PM)100% (Sep 18, 11:20 PM)30.39 "Hg (Sep 18, 11:20 PM)
Low45 °F (Sep 23, 4:20 AM)45% (Sep 23, 5:20 PM)29.83 "Hg (Sep 18, 4:50 AM)
Average60 °F81%30.11 "Hg
* Reported Sep 17 6:20 PM — Oct 2 6:20 PM, Mülheim / Ruhr, Weather by CustomWeather, © 2014

Note: Actual official high and low records may vary slightly from our data, if they occured in-between our weather recording intervals... More about our weather records

Advertising

Mülheim / Ruhr weather history for previous 24 hours

 ConditionsComfort  
Time TempWeatherWind HumidityBarometerVisibility
6:20 PM
Oct 2
66 °FPartly sunny.5 mph73%30.33 "HgN/A
5:50 PM68 °FPartly sunny.3 mph73%30.33 "HgN/A
5:20 PM68 °FPartly sunny.3 mph69%30.36 "HgN/A
4:50 PM68 °FBroken clouds.2 mph69%30.36 "HgN/A
4:20 PM68 °FPartly sunny.3 mph69%30.36 "HgN/A
3:50 PM68 °FPartly sunny.3 mph64%30.36 "HgN/A
3:20 PM68 °FPartly sunny.3 mph69%30.36 "HgN/A
2:50 PM68 °FPartly sunny.5 mph69%30.36 "HgN/A
2:20 PM68 °FPartly sunny.6 mph64%30.36 "HgN/A
1:50 PM68 °FPartly sunny.5 mph69%30.36 "HgN/A
1:20 PM68 °FPartly sunny.3 mph64%30.36 "HgN/A
12:50 PM68 °FPartly sunny.5 mph69%30.39 "HgN/A
12:20 PM66 °FSunny.2 mph68%30.39 "Hg10 mi
11:50 AM66 °FSunny.2 mph73%30.39 "Hg10 mi
11:20 AM64 °FSunny.3 mph73%30.39 "Hg10 mi
10:50 AM63 °FSunny.3 mph77%30.39 "Hg10 mi
10:20 AM61 °FSunny.3 mph83%30.39 "Hg10 mi
9:50 AM59 °FSunny.3 mph88%30.39 "Hg10 mi
9:20 AM59 °FSunny.5 mph88%30.39 "Hg10 mi
8:50 AM57 °FSunny.7 mph88%30.39 "Hg10 mi
8:20 AM55 °FClear.9 mph94%30.36 "Hg10 mi
7:50 AM57 °FPassing clouds.5 mph88%30.36 "HgN/A
7:20 AM55 °FPassing clouds.5 mph94%30.36 "HgN/A
6:50 AM55 °FPassing clouds.6 mph94%30.36 "HgN/A
6:20 AM55 °FPassing clouds.3 mph94%30.36 "HgN/A
5:50 AM55 °FPassing clouds.3 mph94%30.36 "HgN/A
5:20 AM57 °FPassing clouds.8 mph88%30.36 "HgN/A
4:50 AM57 °FClear.9 mph88%30.36 "Hg10 mi
4:20 AM57 °FClear.7 mph88%30.36 "Hg10 mi
3:50 AM57 °FClear.7 mph94%30.36 "Hg10 mi
3:20 AM57 °FClear.2 mph88%30.36 "Hg10 mi
2:50 AM57 °FClear.2 mph88%30.36 "Hg10 mi
2:20 AM57 °FClear.2 mph88%30.36 "Hg10 mi
1:50 AM55 °FClear.5 mph94%30.36 "Hg10 mi
1:20 AM55 °FClear.3 mph94%30.36 "Hg10 mi
12:50 AM54 °FClear.1 mph94%30.36 "Hg10 mi
12:20 AM55 °FClear.5 mph94%30.36 "Hg10 mi
11:50 PM
Oct 1
55 °FClear.1 mph94%30.36 "Hg10 mi
11:20 PM57 °FClear.3 mph88%30.33 "Hg10 mi
10:50 PM57 °FClear.3 mph94%30.33 "Hg10 mi
10:20 PM57 °FClear.5 mph94%30.33 "Hg10 mi
9:50 PM59 °FClear.2 mph94%30.33 "Hg10 mi
9:20 PM59 °FClear.3 mph88%30.33 "Hg10 mi
8:50 PM59 °FClear.2 mph82%30.33 "Hg10 mi
8:20 PM61 °FClear.No wind83%30.33 "Hg10 mi
7:50 PM63 °FSunny.1 mph77%30.33 "Hg10 mi
7:20 PM64 °FSunny.1 mph73%30.33 "Hg10 mi
Weather by CustomWeather, © 2014

See weather overviewHow to use our weather pages